Meteo Giornale » Osservazioni meteo Gran Bretagna » Stansted

ore: 22:50 - Osservazioni Meteo Stansted
Lat. 51° 53' N Lon. 0° 14' E Alt. 106 metri s.l.m.

nuvoloso

17 °C

Nuvoloso

Temp. 24 Ore

10 °C

23 °C

Sud-Ovest

9.3 Km/h

Dew point 11 °C

Umidità 67 %

Visibilità  10 Km

Il sole sorge alle ore 06:11

Il sole tramonta alle ore 19:46

Data e Ora Cielo e Fenomeni T °C DP °C Um. % Pres. hPa Vis. km Vento km/h
Oggi h: 22:50 nuvoloso Nuvoloso 17 11 67 1020 10 SO 9.3
Oggi h: 22:20 sereno Sereno 17 11 67 1020 10 N 3.7
Oggi h: 21:50 sereno Sereno 18 11 63 1020 10 N 3.7
Oggi h: 21:20 sereno Sereno 17 11 67 1020 10 SO 11.1
Oggi h: 20:50 sereno Sereno 17 11 67 1020 10 SO 11.1
Oggi h: 20:20 sereno Sereno 18 10 59 1019 10 SO 7.4
Oggi h: 19:50 sereno Sereno 19 10 55 1019 10 O/SO 7.4
Oggi h: 19:20 sereno Sereno 20 10 52 1019 10 O/SO 11.1
Oggi h: 18:50 sereno Sereno 21 10 49 1019 10 O 16.7
Oggi h: 18:20 sereno Sereno 21 9 46 1019 10 O/SO 13
Oggi h: 17:50 sereno Sereno 22 9 43 1019 10 O/SO 14.8
Oggi h: 17:20 sereno Sereno 21 9 46 1019 10 O/SO 16.7
Oggi h: 16:50 sereno Sereno 22 8 40 1019 10 O 14.8
Oggi h: 16:20 sereno Sereno 23 9 40 1019 10 O/SO 16.7
Oggi h: 15:50 sereno Sereno 23 9 40 1020 10 O 16.7
Oggi h: 15:20 sereno Sereno 22 9 43 1020 10 O 16.7
Oggi h: 14:50 sereno Sereno 21 9 46 1020 10 O/SO 14.8
Oggi h: 14:20 sereno Sereno 21 8 43 1020 10 O 16.7
Oggi h: 13:50 sereno Sereno 22 9 43 1020 10 O/SO 16.7
Oggi h: 13:20 nuvoloso Nuvoloso 21 9 46 1020 10 O 14.8
Oggi h: 12:50 nuvoloso Nuvoloso 20 9 49 1020 10 O 14.8
Oggi h: 12:20 nuvoloso Nuvoloso 20 9 49 1020 10 O 14.8
Oggi h: 11:50 nuvoloso Nuvoloso 19 9 52 1020 10 O 13
Oggi h: 11:20 nuvoloso Nuvoloso 19 9 52 1021 10 O/SO 13
Oggi h: 10:50 poco_nuvoloso Poco Nuvoloso 19 10 55 1021 10 O 13
Oggi h: 10:20 sereno Sereno 18 11 63 1021 10 O/SO 11.1
Oggi h: 09:50 sereno Sereno 17 11 67 1021 10 SO 13
Oggi h: 09:20 sereno Sereno 16 11 72 1021 10 SO 7.4
Oggi h: 08:50 sereno Sereno 15 11 76 1020 10 O 7.4
Oggi h: 08:20 sereno Sereno 14 11 82 1020 10 O/SO 7.4
Oggi h: 07:50 sereno Sereno 13 11 87 1020 10 N 5.5
Oggi h: 07:20 sereno Sereno 12 11 93 1020 10 N 5.5
Oggi h: 06:50 sereno Sereno 11 10 93 1020 10 O/SO 7.4
Oggi h: 06:20 sereno Sereno 10 9 93 1019 10 N 5.5
Oggi h: 05:50 sereno Sereno 12 10 87 1019 10 N 3.7
Oggi h: 05:20 sereno Sereno 12 10 87 1019 10 N 1.8
Oggi h: 04:50 sereno Sereno 12 10 87 1019 10 N 1.8
Oggi h: 04:20 sereno Sereno 12 10 87 1019 10 N 5.5
Oggi h: 03:50 sereno Sereno 13 10 81 1019 10 N 5.5
Oggi h: 03:20 molto_nuvoloso Molto Nuvoloso 13 11 87 1019 10 N 5.5
Oggi h: 02:50 molto_nuvoloso Molto Nuvoloso 14 11 82 1019 10 N 5.5
Oggi h: 02:20 molto_nuvoloso Molto Nuvoloso 14 11 82 1019 10 N 5.5
Oggi h: 01:50 nuvoloso Nuvoloso 14 11 82 1019 10 N 5.5
Oggi h: 01:20 poco_nuvoloso Poco Nuvoloso 14 11 82 1019 10 O 7.4
Oggi h: 00:50 molto_nuvoloso Molto Nuvoloso 15 11 76 1019 10 O 7.4
Oggi h: 00:20 sereno Sereno 15 12 82 1018 10 O 7.4
Ieri h: 23:50 poco_nuvoloso Poco Nuvoloso 15 12 82 1018 10 N 5.5